Time,TemperatureF,DewpointF,PressureIn,WindDirection,WindDirectionDegrees,WindSpeedMPH,WindSpeedGustMPH,Humidity,HourlyPrecipIn,Conditions,Clouds,dailyrainin,SoftwareType,DateUTC
2013-01-09 00:03:00,78.0,71.0,30.12,East,83,12.0,19.0,80,0.00,,,0.00,,2013-01-09 05:03:00,
2013-01-09 00:12:00,78.0,71.0,30.12,East,83,12.0,19.0,80,0.00,,,0.00,,2013-01-09 05:12:00,
2013-01-09 00:22:00,78.0,72.0,30.11,East,83,15.0,24.0,82,0.00,,,0.00,,2013-01-09 05:22:00,
2013-01-09 00:33:00,78.0,73.0,30.11,East,87,10.0,21.0,84,0.00,,,0.00,,2013-01-09 05:33:00,
2013-01-09 00:42:00,78.0,73.0,30.11,East,87,10.0,21.0,84,0.00,,,0.00,,2013-01-09 05:42:00,
2013-01-09 00:53:00,77.0,72.0,30.11,East,98,13.0,22.0,85,0.00,,,0.00,,2013-01-09 05:53:00,
2013-01-09 01:02:00,77.0,72.0,30.12,East,101,15.0,21.0,85,0.00,,,0.00,,2013-01-09 06:02:00,
2013-01-09 01:12:00,77.0,72.0,30.12,East,101,15.0,21.0,85,0.00,,,0.00,,2013-01-09 06:12:00,
2013-01-09 01:22:00,77.0,72.0,30.12,ENE,64,13.0,21.0,84,0.00,,,0.00,,2013-01-09 06:22:00,
2013-01-09 01:32:00,77.0,72.0,30.11,East,81,16.0,25.0,84,0.00,,,0.00,,2013-01-09 06:32:00,
2013-01-09 01:42:00,77.0,72.0,30.11,East,81,16.0,25.0,84,0.00,,,0.00,,2013-01-09 06:42:00,
2013-01-09 01:52:00,77.0,72.0,30.12,East,86,15.0,23.0,84,0.00,,,0.00,,2013-01-09 06:52:00,
2013-01-09 02:02:00,77.0,72.0,30.12,East,101,13.0,21.0,84,0.00,,,0.00,,2013-01-09 07:02:00,
2013-01-09 02:12:00,77.0,72.0,30.12,East,101,13.0,21.0,84,0.00,,,0.00,,2013-01-09 07:12:00,
2013-01-09 02:22:00,77.0,72.0,30.11,ESE,108,13.0,18.0,85,0.00,,,0.00,,2013-01-09 07:22:00,
2013-01-09 02:32:00,77.0,72.0,30.12,ESE,103,13.0,18.0,85,0.00,,,0.00,,2013-01-09 07:32:00,
2013-01-09 02:42:00,77.0,72.0,30.12,ESE,103,13.0,18.0,85,0.00,,,0.00,,2013-01-09 07:42:00,
2013-01-09 02:52:00,77.0,72.0,30.12,ENE,71,14.0,21.0,85,0.00,,,0.00,,2013-01-09 07:52:00,
2013-01-09 03:02:00,77.0,72.0,30.12,East,80,14.0,22.0,85,0.00,,,0.00,,2013-01-09 08:02:00,
2013-01-09 03:12:00,77.0,72.0,30.12,East,80,14.0,22.0,85,0.00,,,0.00,,2013-01-09 08:12:00,
2013-01-09 03:22:00,77.0,72.0,30.12,East,84,11.0,17.0,86,0.00,,,0.00,,2013-01-09 08:22:00,
2013-01-09 03:32:00,77.0,72.0,30.13,East,95,12.0,21.0,86,0.00,,,0.00,,2013-01-09 08:32:00,
2013-01-09 03:42:00,77.0,72.0,30.13,East,95,12.0,21.0,86,0.00,,,0.00,,2013-01-09 08:42:00,
2013-01-09 03:53:00,77.0,72.0,30.13,ESE,121,11.0,19.0,86,0.00,,,0.00,,2013-01-09 08:53:00,
2013-01-09 04:02:00,77.0,72.0,30.13,East,96,12.0,19.0,86,0.00,,,0.00,,2013-01-09 09:02:00,
2013-01-09 04:12:00,77.0,72.0,30.13,East,96,12.0,19.0,86,0.00,,,0.00,,2013-01-09 09:12:00,
2013-01-09 04:22:00,77.0,72.0,30.13,East,93,11.0,18.0,86,0.00,,,0.00,,2013-01-09 09:22:00,
2013-01-09 04:32:00,77.0,72.0,30.13,East,82,13.0,19.0,86,0.00,,,0.00,,2013-01-09 09:32:00,
2013-01-09 04:42:00,77.0,72.0,30.13,East,82,13.0,19.0,86,0.00,,,0.00,,2013-01-09 09:42:00,
2013-01-09 04:53:00,77.0,72.0,30.14,East,86,14.0,19.0,86,0.00,,,0.00,,2013-01-09 09:53:00,
2013-01-09 05:02:00,77.0,72.0,30.13,East,95,11.0,17.0,86,0.00,,,0.00,,2013-01-09 10:02:00,
2013-01-09 05:12:00,77.0,72.0,30.13,East,95,11.0,17.0,86,0.00,,,0.00,,2013-01-09 10:12:00,
2013-01-09 05:22:00,77.0,72.0,30.14,East,93,9.0,16.0,86,0.00,,,0.00,,2013-01-09 10:22:00,
2013-01-09 05:32:00,77.0,72.0,30.14,ENE,64,11.0,18.0,86,0.00,,,0.00,,2013-01-09 10:32:00,
2013-01-09 05:42:00,77.0,72.0,30.14,ENE,64,11.0,18.0,86,0.00,,,0.00,,2013-01-09 10:42:00,
2013-01-09 05:52:00,76.0,72.0,30.14,East,83,9.0,15.0,87,0.00,,,0.00,,2013-01-09 10:52:00,
2013-01-09 06:02:00,76.0,72.0,30.15,East,81,9.0,14.0,87,0.00,,,0.00,,2013-01-09 11:02:00,
2013-01-09 06:12:00,76.0,72.0,30.15,East,81,9.0,14.0,87,0.00,,,0.00,,2013-01-09 11:12:00,
2013-01-09 06:22:00,76.0,72.0,30.15,East,85,7.0,16.0,87,0.00,,,0.00,,2013-01-09 11:22:00,
2013-01-09 06:33:00,76.0,72.0,30.15,East,92,8.0,15.0,87,0.00,,,0.00,,2013-01-09 11:33:00,
2013-01-09 06:42:00,76.0,72.0,30.15,East,92,8.0,15.0,87,0.00,,,0.00,,2013-01-09 11:42:00,
2013-01-09 06:53:00,77.0,73.0,30.16,East,83,7.0,15.0,87,0.00,,,0.00,,2013-01-09 11:53:00,
2013-01-09 07:03:00,76.0,72.0,30.16,ENE,71,10.0,16.0,86,0.00,,,0.00,,2013-01-09 12:03:00,
2013-01-09 07:12:00,76.0,72.0,30.16,ENE,71,10.0,16.0,86,0.00,,,0.00,,2013-01-09 12:12:00,
2013-01-09 07:23:00,77.0,72.0,30.16,East,86,10.0,16.0,86,0.00,,,0.00,,2013-01-09 12:23:00,
2013-01-09 07:33:00,76.0,72.0,30.17,SE,129,10.0,16.0,86,0.00,,,0.00,,2013-01-09 12:33:00,
2013-01-09 07:43:00,76.0,72.0,30.17,SE,129,10.0,16.0,86,0.00,,,0.00,,2013-01-09 12:43:00,
2013-01-09 07:53:00,77.0,73.0,30.17,East,86,8.0,19.0,87,0.00,,,0.00,,2013-01-09 12:53:00,
2013-01-09 08:03:00,77.0,73.0,30.18,East,97,9.0,17.0,87,0.00,,,0.00,,2013-01-09 13:03:00,
2013-01-09 08:12:00,77.0,73.0,30.18,East,97,9.0,17.0,87,0.00,,,0.00,,2013-01-09 13:12:00,
2013-01-09 08:23:00,77.0,72.0,30.19,East,91,13.0,19.0,85,0.00,,,0.00,,2013-01-09 13:23:00,
2013-01-09 08:33:00,77.0,72.0,30.19,ENE,76,12.0,21.0,84,0.00,,,0.00,,2013-01-09 13:33:00,
2013-01-09 08:43:00,77.0,72.0,30.19,ENE,76,12.0,21.0,84,0.00,,,0.00,,2013-01-09 13:43:00,
2013-01-09 08:53:00,78.0,72.0,30.20,ENE,58,13.0,18.0,83,0.00,,,0.00,,2013-01-09 13:53:00,
2013-01-09 09:03:00,78.0,72.0,30.20,East,93,11.0,21.0,83,0.00,,,0.00,,2013-01-09 14:03:00,
2013-01-09 09:12:00,78.0,72.0,30.20,East,93,11.0,21.0,83,0.00,,,0.00,,2013-01-09 14:12:00,
2013-01-09 09:23:00,78.0,72.0,30.21,ESE,102,12.0,21.0,83,0.00,,,0.00,,2013-01-09 14:23:00,
2013-01-09 09:33:00,78.0,73.0,30.21,ENE,68,11.0,17.0,84,0.00,,,0.00,,2013-01-09 14:33:00,
2013-01-09 09:43:00,78.0,73.0,30.21,ENE,68,11.0,17.0,84,0.00,,,0.00,,2013-01-09 14:43:00,
2013-01-09 09:53:00,78.0,73.0,30.22,East,87,11.0,21.0,84,0.00,,,0.00,,2013-01-09 14:53:00,
2013-01-09 10:03:00,79.0,74.0,30.22,ENE,76,9.0,17.0,84,0.00,,,0.00,,2013-01-09 15:03:00,
2013-01-09 10:13:00,79.0,74.0,30.22,ENE,76,9.0,17.0,84,0.00,,,0.00,,2013-01-09 15:13:00,
2013-01-09 10:23:00,79.0,73.0,30.22,East,82,11.0,17.0,83,0.00,,,0.00,,2013-01-09 15:23:00,
2013-01-09 10:33:00,79.0,73.0,30.22,East,86,10.0,17.0,83,0.00,,,0.00,,2013-01-09 15:33:00,
2013-01-09 10:43:00,79.0,73.0,30.22,East,86,10.0,17.0,83,0.00,,,0.00,,2013-01-09 15:43:00,
2013-01-09 10:53:00,79.0,73.0,30.22,East,83,10.0,21.0,82,0.00,,,0.00,,2013-01-09 15:53:00,
2013-01-09 11:03:00,80.0,74.0,30.21,ENE,72,11.0,18.0,81,0.00,,,0.00,,2013-01-09 16:03:00,
2013-01-09 11:12:00,80.0,74.0,30.21,ENE,72,11.0,18.0,81,0.00,,,0.00,,2013-01-09 16:12:00,
2013-01-09 11:23:00,80.0,74.0,30.21,ENE,67,10.0,18.0,81,0.00,,,0.00,,2013-01-09 16:23:00,
2013-01-09 11:33:00,80.0,73.0,30.20,East,89,10.0,16.0,80,0.00,,,0.00,,2013-01-09 16:33:00,
2013-01-09 11:43:00,80.0,73.0,30.20,East,89,10.0,16.0,80,0.00,,,0.00,,2013-01-09 16:43:00,
2013-01-09 11:53:00,80.0,73.0,30.19,ESE,121,13.0,23.0,80,0.00,,,0.00,,2013-01-09 16:53:00,
2013-01-09 12:03:00,80.0,73.0,30.19,ENE,76,12.0,24.0,79,0.00,,,0.00,,2013-01-09 17:03:00,
2013-01-09 12:12:00,80.0,73.0,30.19,ENE,76,12.0,24.0,79,0.00,,,0.00,,2013-01-09 17:12:00,
2013-01-09 12:23:00,80.0,73.0,30.19,ENE,57,11.0,18.0,80,0.00,,,0.00,,2013-01-09 17:23:00,
2013-01-09 12:33:00,80.0,73.0,30.18,ENE,70,11.0,23.0,79,0.00,,,0.00,,2013-01-09 17:33:00,
2013-01-09 12:43:00,80.0,73.0,30.18,ENE,70,11.0,23.0,79,0.00,,,0.00,,2013-01-09 17:43:00,
2013-01-09 12:53:00,80.0,73.0,30.17,East,100,11.0,19.0,79,0.00,,,0.00,,2013-01-09 17:53:00,
2013-01-09 13:03:00,80.0,73.0,30.17,NE,55,12.0,18.0,79,0.00,,,0.00,,2013-01-09 18:03:00,
2013-01-09 13:12:00,80.0,73.0,30.17,NE,55,12.0,18.0,79,0.00,,,0.00,,2013-01-09 18:12:00,
2013-01-09 13:24:00,80.0,73.0,30.16,East,84,11.0,19.0,79,0.00,,,0.00,,2013-01-09 18:24:00,
2013-01-09 13:33:00,80.0,73.0,30.16,East,96,10.0,18.0,80,0.00,,,0.00,,2013-01-09 18:33:00,
2013-01-09 13:43:00,80.0,73.0,30.16,East,96,10.0,18.0,80,0.00,,,0.00,,2013-01-09 18:43:00,
2013-01-09 13:53:00,80.0,73.0,30.16,East,83,13.0,17.0,80,0.00,,,0.00,,2013-01-09 18:53:00,
2013-01-09 14:03:00,80.0,73.0,30.15,ESE,117,12.0,22.0,80,0.00,,,0.00,,2013-01-09 19:03:00,
2013-01-09 14:13:00,80.0,73.0,30.15,ESE,117,12.0,22.0,80,0.00,,,0.00,,2013-01-09 19:13:00,
2013-01-09 14:23:00,80.0,74.0,30.15,ENE,74,10.0,19.0,81,0.00,,,0.00,,2013-01-09 19:23:00,
2013-01-09 14:33:00,79.0,73.0,30.15,East,101,10.0,18.0,81,0.00,,,0.00,,2013-01-09 19:33:00,
2013-01-09 14:43:00,79.0,73.0,30.15,East,101,10.0,18.0,81,0.00,,,0.00,,2013-01-09 19:43:00,
2013-01-09 14:53:00,80.0,74.0,30.15,ENE,58,10.0,16.0,81,0.00,,,0.00,,2013-01-09 19:53:00,
2013-01-09 15:03:00,80.0,74.0,30.15,East,80,10.0,22.0,81,0.00,,,0.00,,2013-01-09 20:03:00,
2013-01-09 15:12:00,80.0,74.0,30.15,East,80,10.0,22.0,81,0.00,,,0.00,,2013-01-09 20:12:00,
2013-01-09 15:23:00,79.0,73.0,30.15,East,84,11.0,18.0,82,0.00,,,0.00,,2013-01-09 20:23:00,
2013-01-09 15:33:00,79.0,73.0,30.15,East,97,9.0,19.0,82,0.00,,,0.00,,2013-01-09 20:33:00,
2013-01-09 15:43:00,79.0,73.0,30.15,East,97,9.0,19.0,82,0.00,,,0.00,,2013-01-09 20:43:00,
2013-01-09 15:53:00,79.0,73.0,30.15,ENE,74,9.0,17.0,82,0.00,,,0.00,,2013-01-09 20:53:00,
2013-01-09 16:03:00,79.0,73.0,30.15,East,87,10.0,17.0,83,0.00,,,0.00,,2013-01-09 21:03:00,
2013-01-09 16:13:00,79.0,73.0,30.15,East,87,10.0,17.0,83,0.00,,,0.00,,2013-01-09 21:13:00,
2013-01-09 16:23:00,79.0,73.0,30.15,East,95,8.0,19.0,83,0.00,,,0.00,,2013-01-09 21:23:00,
2013-01-09 16:33:00,79.0,74.0,30.15,ESE,103,7.0,19.0,84,0.00,,,0.00,,2013-01-09 21:33:00,
2013-01-09 16:43:00,79.0,74.0,30.15,ESE,103,7.0,19.0,84,0.00,,,0.00,,2013-01-09 21:43:00,
2013-01-09 16:53:00,78.0,73.0,30.16,East,93,9.0,19.0,84,0.00,,,0.00,,2013-01-09 21:53:00,
2013-01-09 17:03:00,78.0,73.0,30.16,East,82,10.0,17.0,84,0.00,,,0.00,,2013-01-09 22:03:00,
2013-01-09 17:12:00,78.0,73.0,30.16,East,82,10.0,17.0,84,0.00,,,0.00,,2013-01-09 22:12:00,
2013-01-09 17:23:00,78.0,73.0,30.16,East,97,12.0,18.0,84,0.00,,,0.00,,2013-01-09 22:23:00,
2013-01-09 17:33:00,78.0,73.0,30.16,ENE,62,8.0,19.0,84,0.00,,,0.00,,2013-01-09 22:33:00,
2013-01-09 17:43:00,78.0,73.0,30.16,ENE,62,8.0,19.0,84,0.00,,,0.00,,2013-01-09 22:43:00,
2013-01-09 17:53:00,78.0,73.0,30.16,East,79,10.0,21.0,84,0.00,,,0.00,,2013-01-09 22:53:00,
2013-01-09 18:03:00,78.0,73.0,30.17,ENE,70,10.0,19.0,85,0.00,,,0.00,,2013-01-09 23:03:00,
2013-01-09 18:13:00,78.0,73.0,30.17,ENE,70,10.0,19.0,85,0.00,,,0.00,,2013-01-09 23:13:00,
2013-01-09 18:23:00,78.0,73.0,30.17,ESE,120,10.0,19.0,85,0.00,,,0.00,,2013-01-09 23:23:00,
2013-01-09 18:33:00,78.0,73.0,30.17,NE,42,10.0,18.0,84,0.00,,,0.00,,2013-01-09 23:33:00,
2013-01-09 18:43:00,78.0,73.0,30.17,NE,42,10.0,18.0,84,0.00,,,0.00,,2013-01-09 23:43:00,
2013-01-09 18:53:00,78.0,73.0,30.18,ENE,70,9.0,16.0,85,0.00,,,0.00,,2013-01-09 23:53:00,
2013-01-09 19:03:00,78.0,73.0,30.19,SE,137,10.0,18.0,85,0.00,,,0.00,,2013-01-10 00:03:00,
2013-01-09 19:12:00,78.0,73.0,30.19,SE,137,10.0,18.0,85,0.00,,,0.00,,2013-01-10 00:12:00,
2013-01-09 19:22:00,78.0,73.0,30.19,ESE,114,10.0,17.0,85,0.00,,,0.00,,2013-01-10 00:22:00,
2013-01-09 19:32:00,78.0,73.0,30.20,East,89,8.0,14.0,85,0.00,,,0.00,,2013-01-10 00:32:00,
2013-01-09 19:42:00,78.0,73.0,30.20,East,89,8.0,14.0,85,0.00,,,0.00,,2013-01-10 00:42:00,
2013-01-09 19:53:00,78.0,73.0,30.20,East,95,13.0,17.0,85,0.00,,,0.00,,2013-01-10 00:53:00,
2013-01-09 20:02:00,78.0,73.0,30.20,East,82,12.0,19.0,85,0.00,,,0.00,,2013-01-10 01:02:00,
2013-01-09 20:12:00,78.0,73.0,30.20,East,82,12.0,19.0,85,0.00,,,0.00,,2013-01-10 01:12:00,
2013-01-09 20:22:00,77.0,72.0,30.20,ENE,66,13.0,22.0,84,0.00,,,0.00,,2013-01-10 01:22:00,
2013-01-09 20:33:00,78.0,73.0,30.20,East,83,11.0,21.0,84,0.00,,,0.00,,2013-01-10 01:33:00,
2013-01-09 20:43:00,78.0,73.0,30.20,East,83,11.0,21.0,84,0.00,,,0.00,,2013-01-10 01:43:00,
2013-01-09 20:53:00,78.0,73.0,30.20,ENE,76,10.0,20.0,84,0.00,,,0.00,,2013-01-10 01:53:00,
2013-01-09 21:03:00,78.0,72.0,30.20,ENE,68,15.0,24.0,83,0.00,,,0.00,,2013-01-10 02:03:00,
2013-01-09 21:12:00,78.0,72.0,30.20,ENE,68,15.0,24.0,83,0.00,,,0.00,,2013-01-10 02:12:00,
2013-01-09 21:22:00,77.0,71.0,30.20,ENE,58,12.0,22.0,83,0.00,,,0.00,,2013-01-10 02:22:00,
2013-01-09 21:32:00,77.0,71.0,30.21,ESE,114,15.0,22.0,82,0.00,,,0.00,,2013-01-10 02:32:00,
2013-01-09 21:43:00,77.0,71.0,30.21,ESE,114,15.0,22.0,82,0.00,,,0.00,,2013-01-10 02:43:00,
2013-01-09 21:53:00,77.0,71.0,30.21,ESE,114,15.0,22.0,82,0.00,,,0.00,,2013-01-10 02:53:00,
2013-01-09 22:03:00,77.0,71.0,30.22,East,97,14.0,23.0,83,0.00,,,0.00,,2013-01-10 03:03:00,
2013-01-09 22:12:00,77.0,71.0,30.22,East,97,14.0,23.0,83,0.00,,,0.00,,2013-01-10 03:12:00,
2013-01-09 22:22:00,77.0,72.0,30.22,East,86,11.0,21.0,84,0.00,,,0.00,,2013-01-10 03:22:00,
2013-01-09 22:33:00,77.0,72.0,30.22,East,94,14.0,22.0,84,0.00,,,0.00,,2013-01-10 03:33:00,
2013-01-09 22:42:00,77.0,72.0,30.22,East,94,14.0,22.0,84,0.00,,,0.00,,2013-01-10 03:42:00,
2013-01-09 22:53:00,77.0,72.0,30.22,East,90,11.0,21.0,84,0.00,,,0.00,,2013-01-10 03:53:00,
2013-01-09 23:02:00,77.0,72.0,30.22,ENE,64,11.0,19.0,84,0.00,,,0.00,,2013-01-10 04:02:00,
2013-01-09 23:12:00,77.0,72.0,30.22,ENE,64,11.0,19.0,84,0.00,,,0.00,,2013-01-10 04:12:00,
2013-01-09 23:22:00,77.0,72.0,30.22,East,87,11.0,18.0,84,0.00,,,0.00,,2013-01-10 04:22:00,
2013-01-09 23:32:00,77.0,72.0,30.22,East,85,12.0,17.0,85,0.00,,,0.00,,2013-01-10 04:32:00,
2013-01-09 23:43:00,77.0,72.0,30.22,East,85,12.0,17.0,85,0.00,,,0.00,,2013-01-10 04:43:00,
2013-01-09 23:53:00,77.0,72.0,30.22,NE,35,14.0,22.0,85,0.00,,,0.00,,2013-01-10 04:53:00,